Location: Pedimozza
(42.0500°N, 9.3500°E)
Time: 19:35:11
(UTC+00:00)

Unknown - Pass Details

Date: 19 August 2019
Orbit: 549 x 551 km, 53.0° (Epoch: 23 September)

Event Time Altitude Azimuth Distance (km) Brightness Sun altitude
Rises 19:02:35 0° 309° (NW) 2,721 9.1 -8.5°
Reaches altitude 10° 19:04:54 10° 316° (NW) 1,826 7.6 -8.9°
Maximum altitude 19:08:52 44° 29° (NNE) 768 4.3 -9.6°
Enters shadow 19:12:20 13° 100° (E) 1,632 5.4 -10.2°
